This is the latest recevied weather packets stored in our database for station/object N5PRN. If no packets are shown the sender has not sent any weather packets the latest 10 day(s).
| Time | Temp. | Humidity | Pressure | Rain* | Wind** | Luminosity | Snow |
|---|---|---|---|---|---|---|---|
| 1777935873 | 24.44° C | 59% | 1012 hPa | 0 mm | - | 89 W/m² | - |
| 1777935572 | 24.44° C | 59% | 1012 hPa | 0 mm | - | 77 W/m² | - |
| 1777935268 | 24.44° C | 59% | 1011.9 hPa | 0 mm | - | 129 W/m² | - |
| 1777934965 | 24.44° C | 57% | 1012 hPa | 0 mm | - | 203 W/m² | - |
| 1777934661 | 24.44° C | 58% | 1012.2 hPa | 0 mm | - | 303 W/m² | - |
| 1777934359 | 25° C | 58% | 1012.2 hPa | 0 mm | - | 330 W/m² | - |
| 1777934054 | 25° C | 58% | 1012.1 hPa | 0 mm | - | 357 W/m² | - |
| 1777933750 | 24.44° C | 59% | 1012.2 hPa | 0 mm | - | 323 W/m² | - |
| 1777933448 | 23.89° C | 59% | 1012.2 hPa | 0 mm | - | 386 W/m² | - |
| 1777933146 | 24.44° C | 59% | 1012.3 hPa | 0 mm | - | 104 W/m² | - |
| 1777932843 | 23.89° C | 59% | 1012.3 hPa | 0 mm | - | 168 W/m² | - |
| 1777932539 | 23.89° C | 59% | 1012.3 hPa | 0 mm | - | 145 W/m² | - |
| 1777932231 | 25° C | 58% | 1012.3 hPa | 0 mm | - | 101 W/m² | - |
| 1777931928 | 25° C | 58% | 1012.5 hPa | 0 mm | - | 428 W/m² | - |
| 1777931624 | 25° C | 58% | 1012.5 hPa | 0 mm | - | 433 W/m² | - |
| 1777931320 | 25° C | 58% | 1012.5 hPa | 0 mm | - | 240 W/m² | - |
| 1777931017 | 24.44° C | 58% | 1012.6 hPa | 0 mm | - | 530 W/m² | - |
| 1777930714 | 24.44° C | 58% | 1012.9 hPa | 0 mm | - | 196 W/m² | - |
| 1777930410 | 24.44° C | 57% | 1012.7 hPa | 0 mm | - | 607 W/m² | - |
| 1777930107 | 24.44° C | 58% | 1012.8 hPa | 0 mm | - | 187 W/m² | - |
| 1777929803 | 24.44° C | 56% | 1012.9 hPa | 0 mm | - | 171 W/m² | - |
| 1777929501 | 25.56° C | 56% | 1012.8 hPa | 0 mm | - | 152 W/m² | - |
| 1777929197 | 26.67° C | 54% | 1012.9 hPa | 0 mm | - | 573 W/m² | - |
| 1777928895 | 26.11° C | 54% | 1012.8 hPa | 0 mm | - | 672 W/m² | - |
| 1777928592 | 25.56° C | 54% | 1013.2 hPa | 0 mm | - | 657 W/m² | - |
* Rain latest hour (hover to see other rain measurements)
** Current wind speed in m/s (hover to see current wind gust speed)